| time (UTC) | temp F | wind direction | speed knots | gust knots | rain 1hr in | rain 24hr in | rain mn in | humidity % | barometer mb |
| 20260505033006 | 52 | 275 | 0.0 | 3.5 | 0.00 | 0.47 | 0.00 | 99 | 1014.6 |
| 20260505031505 | 53 | 275 | 0.0 | 1.7 | 0.00 | 0.47 | 0.00 | 99 | 1014.4 |
| 20260505024505 | 54 | 330 | 0.9 | 1.7 | 0.00 | 0.47 | 0.00 | 99 | 1014.6 |
| 20260505023006 | 54 | 117 | 0.0 | 1.7 | 0.00 | 0.47 | 0.00 | 99 | 1014.7 |
| 20260505021505 | 54 | 189 | 0.0 | 1.7 | 0.00 | 0.47 | 0.00 | 99 | 1014.5 |
| 20260505020006 | 53 | 291 | 0.0 | 1.7 | 0.00 | 0.47 | 0.00 | 99 | 1014.4 |
| 20260505014505 | 53 | 304 | 0.0 | 1.7 | 0.00 | 0.47 | 0.00 | 99 | 1014.4 |
| 20260505013005 | 53 | 107 | 0.0 | 1.7 | 0.00 | 0.47 | 0.00 | 99 | 1014.4 |
| 20260505011505 | 53 | 103 | 2.6 | 3.5 | 0.00 | 0.47 | 0.00 | 99 | 1014.5 |
| 20260505010005 | 53 | 270 | 0.0 | 1.7 | 0.00 | 0.47 | 0.00 | 99 | 1014.5 |
| 20260505001505 | 54 | 270 | 0.0 | 1.7 | 0.00 | 0.47 | 0.00 | 99 | 1014.8 |
| 20260505000005 | 55 | 245 | 0.0 | 1.7 | 0.00 | 0.47 | 0.00 | 99 | 1014.6 |
| 20260504234505 | 55 | 296 | 0.0 | 5.2 | 0.00 | 0.47 | 0.00 | 99 | 1014.8 |
| 20260504233005 | 56 | 322 | 1.7 | 1.7 | 0.00 | 0.47 | 0.00 | 99 | 1014.8 |
| 20260504231504 | 56 | 24 | 0.0 | 1.7 | 0.00 | 0.47 | 0.00 | 99 | 1014.2 |
| 20260504230006 | 57 | 324 | 0.0 | 1.7 | 0.00 | 0.47 | 0.00 | 99 | 1014.2 |
| 20260504224504 | 56 | 141 | 0.0 | 1.7 | 0.01 | 0.47 | 0.00 | 99 | 1014.1 |
| 20260504223005 | 56 | 143 | 0.0 | 1.7 | 0.02 | 0.47 | 0.00 | 99 | 1014.1 |
| 20260504221504 | 57 | 216 | 0.0 | 1.7 | 0.11 | 0.47 | 0.00 | 99 | 1014.2 |
| 20260504213006 | 58 | 331 | 1.7 | 3.5 | 0.20 | 0.45 | 0.45 | 99 | 1014.7 |
| 20260504211505 | 58 | 308 | 0.9 | 1.7 | 0.12 | 0.37 | 0.37 | 99 | 1015.2 |
| 20260504204504 | 58 | 270 | 0.0 | 1.7 | 0.00 | 0.25 | 0.25 | 99 | 1014.6 |
| 20260504203004 | 58 | 153 | 0.9 | 1.7 | 0.00 | 0.25 | 0.25 | 99 | 1014.4 |
| 20260504201504 | 58 | 69 | 1.7 | 3.5 | 0.00 | 0.25 | 0.25 | 99 | 1014.2 |
| 20260504200005 | 58 | 65 | 0.9 | 1.7 | 0.00 | 0.25 | 0.25 | 99 | 1014.0 |
| 20260504193004 | 59 | 303 | 0.0 | 1.7 | 0.00 | 0.25 | 0.25 | 99 | 1014.0 |
| 20260504191505 | 59 | 225 | 0.0 | 1.7 | 0.00 | 0.25 | 0.25 | 99 | 1013.6 |
| 20260504184504 | 59 | 326 | 0.9 | 1.7 | 0.00 | 0.25 | 0.25 | 99 | 1013.4 |
| 20260504183005 | 60 | 0 | 0.0 | 0.0 | 0.00 | 0.25 | 0.25 | 99 | 1013.3 |
| 20260504181504 | 60 | 77 | 0.0 | 1.7 | 0.00 | 0.25 | 0.25 | 99 | 1013.4 |
| 20260504180005 | 60 | 248 | 0.0 | 1.7 | 0.00 | 0.25 | 0.25 | 99 | 1013.5 |
| 20260504173005 | 60 | 284 | 0.9 | 1.7 | 0.00 | 0.25 | 0.25 | 99 | 1013.4 |
| 20260504171505 | 60 | 112 | 0.0 | 1.7 | 0.00 | 0.25 | 0.25 | 99 | 1013.7 |
| 20260504081506 | 68 | 244 | 0.0 | 3.5 | 0.00 | 0.00 | 0.00 | 70 | 1014.4 |
| 20260504044505 | 53 | 295 | 1.7 | 3.5 | 0.00 | 0.00 | 0.00 | 99 | 1015.3 |
| 20260504043005 | 53 | 314 | 1.7 | 3.5 | 0.00 | 0.00 | 0.00 | 99 | 1015.5 |
| 20260504041505 | 53 | 291 | 0.9 | 1.7 | 0.00 | 0.00 | 0.00 | 99 | 1015.4 |